Flag for U.S.A. Weather past 2 weeks in Vancouver, Washington, U.S.A.

Now
46 °F

Partly sunny.


Feels Like: 43 °F
Forecast: 41 / 59 °F
Wind: 6 mph from Southeast

Location: Vancouver - Pearson Airpark

Current Time: Apr 26, 2015 at 8:47:44 AM

Latest Report: Apr 26, 2015 at 7:53 AM


Visibility: 10 mi

Pressure: 30.20 "Hg

Humidity: 79%

Dew point: 40 °F

Location of VancouverLocation

Historic Weather in Vancouver — Graph

°F

Vancouver temperature yesterday

Maximum temperature yesterday: 61 °F (at 3:53 PM)
Minimum temperature yesterday: 41 °F (at 7:01 AM)
Average temperature yesterday: 52 °F

Past Weeks' High & Low Weather Summary

 TemperatureHumidityPressure
High80 °F (Apr 20, 4:53 PM)100% (Apr 15, 6:53 AM)30.58 "Hg (Apr 15, 6:53 AM)
Low35 °F (Apr 15, 3:04 AM)16% (Apr 18, 5:53 PM)29.77 "Hg (Apr 20, 6:53 PM)
Average52 °F64%30.12 "Hg
* Reported Apr 11 7:53 AM — Apr 26 7:53 AM, Vancouver, Weather by CustomWeather, © 2015

Note: Actual official high and low records may vary slightly from our data, if they occured in-between our weather recording intervals... More about our weather records

Advertising

Vancouver weather history for previous 24 hours

 ConditionsComfort  
Time TempWeatherWind HumidityBarometerVisibility
7:53 AM
Sun, Apr 26
46 °FPartly sunny.6 mph79%30.20 "Hg10 mi
6:53 AM44 °FPassing clouds.6 mph79%30.19 "Hg10 mi
5:53 AM43 °FClear.6 mph86%30.16 "Hg10 mi
4:53 AM43 °FClear.No wind82%30.14 "Hg10 mi
3:53 AM44 °FPassing clouds.3 mph79%30.14 "Hg10 mi
2:53 AM42 °FClear.No wind76%30.13 "Hg10 mi
1:53 AM44 °FClear.No wind68%30.11 "Hg10 mi
12:53 AM44 °FClear.No wind68%30.11 "Hg10 mi
11:53 PM
Sat, Apr 25
48 °FClear.No wind56%30.09 "Hg10 mi
10:53 PM50 °FClear.3 mph52%30.07 "Hg10 mi
9:53 PM52 °FClear.3 mph47%30.07 "Hg10 mi
8:53 PM55 °FPassing clouds.7 mph33%30.05 "Hg10 mi
7:53 PM57 °FPartly sunny.7 mph39%30.02 "Hg10 mi
6:53 PM60 °FBroken clouds.5 mph33%29.99 "Hg10 mi
5:53 PM60 °FSunny.7 mph36%29.98 "Hg10 mi
4:53 PM60 °FSunny.5 mph35%29.98 "Hg10 mi
3:53 PM61 °FSunny.6 mph31%29.98 "Hg10 mi
2:53 PM59 °FPassing clouds.6 mph39%29.99 "Hg10 mi
1:53 PM58 °FScattered clouds.5 mph44%30.00 "Hg10 mi
12:53 PM55 °FSunny.6 mph49%30.00 "Hg10 mi
11:53 AM55 °FScattered clouds.6 mph51%30.00 "Hg10 mi
10:53 AM53 °FScattered clouds.No wind61%30.01 "Hg10 mi
9:53 AM50 °FPassing clouds.3 mph74%29.99 "Hg10 mi
9:03 AM49 °FBroken clouds.5 mph77%29.99 "Hg10 mi
8:53 AM49 °FScattered clouds.3 mph80%29.99 "Hg10 mi
8:00 AM47 °FPartly sunny.5 mph86%29.97 "Hg10 mi
Weather by CustomWeather, © 2015

See weather overviewHow to use our weather pages